User: anonymous   Login
Location: Cincinnati Observatory Center
(39.1389°N, 84.4225°W)
Time: 00:01:11
(UTC-05:00)
Language:

COSMOS 2428 - Orbit

View from above orbital plane
View from above orbital plane
View from above satellite
View from above satellite

Ground track
Ground track

The orbit data is extracted from the following two-line orbital elements,

1 31792U 07029A   15060.89607102  .00000141  00000-0  10182-3 0  9996
2 31792 070.9854 009.7868 0006545 126.5311 335.2299 14.12535446395706
Epoch (UTC): 01 March 2015 21:30:20
Eccentricity: 0.0006545
inclination: 70.9854°
perigee height: 846 km
apogee height: 855 km
right ascension of ascending node: 9.7868°
argument of perigee: 126.5311°
revolutions per day: 14.12535446
mean anomaly at epoch: 335.2299°
orbit number at epoch: 39570

The dashed part of the orbit path shows where the satellite is in the earth's shadow,  

DLR